Year,Month,Day,Hour,Minute,Value (Times are PST for temperature in C)
2017,05,06,00,00,6.40
2017,05,06,00,01,6.40
2017,05,06,00,02,6.40
2017,05,06,00,03,6.40
2017,05,06,00,04,6.40
2017,05,06,00,05,6.30
2017,05,06,00,06,6.30
2017,05,06,00,07,6.30
2017,05,06,00,08,6.30
2017,05,06,00,09,6.30
2017,05,06,00,10,6.30
2017,05,06,00,11,6.30
2017,05,06,00,12,6.30
2017,05,06,00,13,6.20
2017,05,06,00,14,6.20
2017,05,06,00,15,6.20
2017,05,06,00,16,6.20
2017,05,06,00,17,6.20
2017,05,06,00,18,6.20
2017,05,06,00,19,6.20
2017,05,06,00,20,6.20
2017,05,06,00,21,6.20
2017,05,06,00,22,6.10
2017,05,06,00,23,6.10
2017,05,06,00,24,6.10
2017,05,06,00,25,6.10
2017,05,06,00,26,6.10
2017,05,06,00,27,6.10
2017,05,06,00,28,6.10
2017,05,06,00,29,6.10
2017,05,06,00,30,6.10
2017,05,06,00,31,6.00
2017,05,06,00,32,6.00
2017,05,06,00,33,6.00
2017,05,06,00,34,6.00
2017,05,06,00,35,6.00
2017,05,06,00,36,6.00
2017,05,06,00,37,6.00
2017,05,06,00,38,5.90
2017,05,06,00,39,5.90
2017,05,06,00,40,5.90
2017,05,06,00,41,5.90
2017,05,06,00,42,5.90
2017,05,06,00,43,5.90
2017,05,06,00,44,5.80
2017,05,06,00,45,5.80
2017,05,06,00,46,5.80
2017,05,06,00,47,5.80
2017,05,06,00,48,5.80
2017,05,06,00,49,5.70
2017,05,06,00,50,5.70
2017,05,06,00,51,5.70
2017,05,06,00,52,5.70
2017,05,06,00,53,5.60
2017,05,06,00,54,5.60
2017,05,06,00,55,5.60
2017,05,06,00,56,5.60
2017,05,06,00,57,5.50
2017,05,06,00,58,5.40
2017,05,06,00,59,5.40
2017,05,06,01,00,5.40
2017,05,06,01,01,5.40
2017,05,06,01,02,5.30
2017,05,06,01,03,5.30
2017,05,06,01,04,5.30
2017,05,06,01,05,5.30
2017,05,06,01,06,5.20
2017,05,06,01,07,5.20
2017,05,06,01,08,5.10
2017,05,06,01,09,5.10
2017,05,06,01,10,5.10
2017,05,06,01,11,5.00
2017,05,06,01,12,5.00
2017,05,06,01,13,4.90
2017,05,06,01,14,4.90
2017,05,06,01,15,4.80
2017,05,06,01,16,4.80
2017,05,06,01,17,4.80
2017,05,06,01,18,4.70
2017,05,06,01,19,4.70
2017,05,06,01,20,4.60
2017,05,06,01,21,4.60
2017,05,06,01,22,4.50
2017,05,06,01,23,4.50
2017,05,06,01,24,4.50
2017,05,06,01,25,4.40
2017,05,06,01,26,4.40
2017,05,06,01,27,4.40
2017,05,06,01,28,4.40
2017,05,06,01,29,4.40
2017,05,06,01,30,4.40
2017,05,06,01,31,4.40
2017,05,06,01,32,4.40
2017,05,06,01,33,4.30
2017,05,06,01,34,4.40
2017,05,06,01,35,4.40
2017,05,06,01,36,4.40
2017,05,06,01,37,4.40
2017,05,06,01,38,4.40
2017,05,06,01,39,4.40
2017,05,06,01,40,4.40
2017,05,06,01,41,4.40
2017,05,06,01,42,4.40
2017,05,06,01,43,4.40
2017,05,06,01,44,4.40
2017,05,06,01,45,4.30
2017,05,06,01,46,4.30
2017,05,06,01,47,4.30
2017,05,06,01,48,4.30
2017,05,06,01,49,4.30
2017,05,06,01,50,4.40
2017,05,06,01,51,4.40
2017,05,06,01,52,4.40
2017,05,06,01,53,4.40
2017,05,06,01,54,4.40
2017,05,06,01,55,4.40
2017,05,06,01,56,4.40
2017,05,06,01,57,4.50
2017,05,06,01,58,4.50
2017,05,06,01,59,4.60
2017,05,06,02,00,4.60
2017,05,06,02,01,4.60
2017,05,06,02,02,4.60
2017,05,06,02,03,4.60
2017,05,06,02,04,4.60
2017,05,06,02,05,4.60
2017,05,06,02,06,4.60
2017,05,06,02,07,4.60
2017,05,06,02,08,4.60
2017,05,06,02,09,4.60
2017,05,06,02,10,4.60
2017,05,06,02,11,4.60
2017,05,06,02,12,4.60
2017,05,06,02,13,4.50
2017,05,06,02,14,4.50
2017,05,06,02,15,4.50
2017,05,06,02,16,4.50
2017,05,06,02,17,4.50
2017,05,06,02,18,4.50
2017,05,06,02,19,4.50
2017,05,06,02,20,4.50
2017,05,06,02,21,4.50
2017,05,06,02,22,4.50
2017,05,06,02,23,4.50
2017,05,06,02,24,4.50
2017,05,06,02,25,4.50
2017,05,06,02,26,4.50
2017,05,06,02,27,4.40
2017,05,06,02,28,4.40
2017,05,06,02,29,4.40
2017,05,06,02,30,4.40
2017,05,06,02,31,4.40
2017,05,06,02,32,4.40
2017,05,06,02,33,4.40
2017,05,06,02,34,4.30
2017,05,06,02,35,4.30
2017,05,06,02,36,4.30
2017,05,06,02,37,4.30
2017,05,06,02,38,4.30
2017,05,06,02,39,4.30
2017,05,06,02,40,4.40
2017,05,06,02,41,4.30
2017,05,06,02,42,4.30
2017,05,06,02,43,4.30
2017,05,06,02,44,4.30
2017,05,06,02,45,4.30
2017,05,06,02,46,4.30
2017,05,06,02,47,4.30
2017,05,06,02,48,4.30
2017,05,06,02,49,4.30
2017,05,06,02,50,4.30
2017,05,06,02,51,4.30
2017,05,06,02,52,4.30
2017,05,06,02,53,4.30
2017,05,06,02,54,4.30
2017,05,06,02,55,4.30
2017,05,06,02,56,4.30
2017,05,06,02,57,4.30
2017,05,06,02,58,4.30
2017,05,06,02,59,4.30
2017,05,06,03,00,4.30
2017,05,06,03,01,4.30
2017,05,06,03,02,4.30
2017,05,06,03,03,4.30
2017,05,06,03,04,4.20
2017,05,06,03,05,4.20
2017,05,06,03,06,4.20
2017,05,06,03,07,4.20
2017,05,06,03,08,4.20
2017,05,06,03,09,4.20
2017,05,06,03,10,4.10
2017,05,06,03,11,4.10
2017,05,06,03,12,4.10
2017,05,06,03,13,4.10
2017,05,06,03,14,4.10
2017,05,06,03,15,4.10
2017,05,06,03,16,4.10
2017,05,06,03,17,4.10
2017,05,06,03,18,4.10
2017,05,06,03,19,4.10
2017,05,06,03,20,4.10
2017,05,06,03,21,4.10
2017,05,06,03,22,4.10
2017,05,06,03,23,4.10
2017,05,06,03,24,4.10
2017,05,06,03,25,4.10
2017,05,06,03,26,4.10
2017,05,06,03,27,4.10
2017,05,06,03,28,4.00
2017,05,06,03,29,4.10
2017,05,06,03,30,4.10
2017,05,06,03,31,4.10
2017,05,06,03,32,4.10
2017,05,06,03,33,4.10
2017,05,06,03,34,4.00
2017,05,06,03,35,4.00
2017,05,06,03,36,3.90
2017,05,06,03,37,3.80
2017,05,06,03,38,3.80
2017,05,06,03,39,3.80
2017,05,06,03,40,3.80
2017,05,06,03,41,3.70
2017,05,06,03,42,3.70
2017,05,06,03,43,3.70
2017,05,06,03,44,3.70
2017,05,06,03,45,3.70
2017,05,06,03,46,3.70
2017,05,06,03,47,3.70
2017,05,06,03,48,3.70
2017,05,06,03,49,3.70
2017,05,06,03,50,3.60
2017,05,06,03,51,3.60
2017,05,06,03,52,3.60
2017,05,06,03,53,3.60
2017,05,06,03,54,3.60
2017,05,06,03,55,3.60
2017,05,06,03,56,3.60
2017,05,06,03,57,3.60
2017,05,06,03,58,3.60
2017,05,06,03,59,3.70
2017,05,06,04,00,3.70
2017,05,06,04,01,3.70
2017,05,06,04,02,3.70
2017,05,06,04,03,3.60
2017,05,06,04,04,3.60
2017,05,06,04,05,3.60
2017,05,06,04,06,3.60
2017,05,06,04,07,3.60
2017,05,06,04,08,3.60
2017,05,06,04,09,3.60
2017,05,06,04,10,3.60
2017,05,06,04,11,3.50
2017,05,06,04,12,3.50
2017,05,06,04,13,3.50
2017,05,06,04,14,3.50
2017,05,06,04,15,3.50
2017,05,06,04,16,3.50
2017,05,06,04,17,3.50
2017,05,06,04,18,3.40
2017,05,06,04,19,3.40
2017,05,06,04,20,3.40
2017,05,06,04,21,3.40
2017,05,06,04,22,3.40
2017,05,06,04,23,3.40
2017,05,06,04,24,3.30
2017,05,06,04,25,3.30
2017,05,06,04,26,3.30
2017,05,06,04,27,3.30
2017,05,06,04,28,3.30
2017,05,06,04,29,3.30
2017,05,06,04,30,3.30
2017,05,06,04,31,3.30
2017,05,06,04,32,3.30
2017,05,06,04,33,3.30
2017,05,06,04,34,3.20
2017,05,06,04,35,3.20
2017,05,06,04,36,3.20
2017,05,06,04,37,3.20
2017,05,06,04,38,3.20
2017,05,06,04,39,3.20
2017,05,06,04,40,3.20
2017,05,06,04,41,3.20
2017,05,06,04,42,3.20
2017,05,06,04,43,3.20
2017,05,06,04,44,3.20
2017,05,06,04,45,3.10
2017,05,06,04,46,3.10
2017,05,06,04,47,3.10
2017,05,06,04,48,3.00
2017,05,06,04,49,3.00
2017,05,06,04,50,3.00
2017,05,06,04,51,2.90
2017,05,06,04,52,2.90
2017,05,06,04,53,2.80
2017,05,06,04,54,2.80
2017,05,06,04,55,2.80
2017,05,06,04,56,2.80
2017,05,06,04,57,2.80
2017,05,06,04,58,2.80
2017,05,06,04,59,2.80
2017,05,06,05,00,2.80
2017,05,06,05,01,2.70
2017,05,06,05,02,2.70
2017,05,06,05,03,2.70
2017,05,06,05,04,2.70
2017,05,06,05,05,2.70
2017,05,06,05,06,2.70
2017,05,06,05,07,2.70
2017,05,06,05,08,2.70
2017,05,06,05,09,2.80
2017,05,06,05,10,2.80
2017,05,06,05,11,2.80
2017,05,06,05,12,2.80
2017,05,06,05,13,2.80
2017,05,06,05,14,2.80
2017,05,06,05,15,2.80
2017,05,06,05,16,2.80
2017,05,06,05,17,2.80
2017,05,06,05,18,2.80
2017,05,06,05,19,2.80
2017,05,06,05,20,2.80
2017,05,06,05,21,2.80
2017,05,06,05,22,2.80
2017,05,06,05,23,2.80
2017,05,06,05,24,2.80
2017,05,06,05,25,2.80
2017,05,06,05,26,2.80
2017,05,06,05,27,2.80
2017,05,06,05,28,2.70
2017,05,06,05,29,2.70
2017,05,06,05,30,2.70
2017,05,06,05,31,2.70
2017,05,06,05,32,2.70
2017,05,06,05,33,2.70
2017,05,06,05,34,2.70
2017,05,06,05,35,2.60
2017,05,06,05,36,2.60
2017,05,06,05,37,2.60
2017,05,06,05,38,2.60
2017,05,06,05,39,2.50
2017,05,06,05,40,2.50
2017,05,06,05,41,2.40
2017,05,06,05,42,2.40
2017,05,06,05,43,2.40
2017,05,06,05,44,2.40
2017,05,06,05,45,2.40
2017,05,06,05,46,2.40
2017,05,06,05,47,2.40
2017,05,06,05,48,2.30
2017,05,06,05,49,2.30
2017,05,06,05,50,2.30
2017,05,06,05,51,2.30
2017,05,06,05,52,2.30
2017,05,06,05,53,2.30
2017,05,06,05,54,2.30
2017,05,06,05,55,2.30
2017,05,06,05,56,2.30
2017,05,06,05,57,2.30
2017,05,06,05,58,2.20
2017,05,06,05,59,2.20
2017,05,06,06,00,2.20
2017,05,06,06,01,2.20
2017,05,06,06,02,2.20
2017,05,06,06,03,2.20
2017,05,06,06,04,2.20
2017,05,06,06,05,2.10
2017,05,06,06,06,2.10
2017,05,06,06,07,2.10
2017,05,06,06,08,2.10
2017,05,06,06,09,2.10
2017,05,06,06,10,2.10
2017,05,06,06,11,2.10
2017,05,06,06,12,2.10
2017,05,06,06,13,2.10
2017,05,06,06,14,2.20
2017,05,06,06,15,2.20
2017,05,06,06,16,2.20
2017,05,06,06,17,2.30
2017,05,06,06,18,2.30
2017,05,06,06,19,2.30
2017,05,06,06,20,2.30
2017,05,06,06,21,2.30
2017,05,06,06,22,2.40
2017,05,06,06,23,2.40
2017,05,06,06,24,2.50
2017,05,06,06,25,2.50
2017,05,06,06,26,2.60
2017,05,06,06,27,2.60
2017,05,06,06,28,2.60
2017,05,06,06,29,2.60
2017,05,06,06,30,2.70
2017,05,06,06,31,2.70
2017,05,06,06,32,2.70
2017,05,06,06,33,2.80
2017,05,06,06,34,2.80
2017,05,06,06,35,2.80
2017,05,06,06,36,2.80
2017,05,06,06,37,2.90
2017,05,06,06,38,2.90
2017,05,06,06,39,2.90
2017,05,06,06,40,3.00
2017,05,06,06,41,3.00
2017,05,06,06,42,3.10
2017,05,06,06,43,3.10
2017,05,06,06,44,3.10
2017,05,06,06,45,3.10
2017,05,06,06,46,3.10
2017,05,06,06,47,3.20
2017,05,06,06,48,3.20
2017,05,06,06,49,3.30
2017,05,06,06,50,3.40
2017,05,06,06,51,3.40
2017,05,06,06,52,3.50
2017,05,06,06,53,3.60
2017,05,06,06,54,3.70
2017,05,06,06,55,3.70
2017,05,06,06,56,3.70
2017,05,06,06,57,3.70
2017,05,06,06,58,3.70
2017,05,06,06,59,3.70
2017,05,06,07,00,3.80
2017,05,06,07,01,3.80
2017,05,06,07,02,3.80
2017,05,06,07,03,3.90
2017,05,06,07,04,3.90
2017,05,06,07,05,3.90
2017,05,06,07,06,4.00
2017,05,06,07,07,4.00
2017,05,06,07,08,4.10
2017,05,06,07,09,4.10
2017,05,06,07,10,4.20
2017,05,06,07,11,4.20
2017,05,06,07,12,4.20
2017,05,06,07,13,4.30
2017,05,06,07,14,4.40
2017,05,06,07,15,4.50
2017,05,06,07,16,4.60
2017,05,06,07,17,4.70
2017,05,06,07,18,4.80
2017,05,06,07,19,4.90
2017,05,06,07,20,5.00
2017,05,06,07,21,5.10
2017,05,06,07,22,5.20
2017,05,06,07,23,5.20
2017,05,06,07,24,5.30
2017,05,06,07,25,5.40
2017,05,06,07,26,5.50
2017,05,06,07,27,5.50
2017,05,06,07,28,5.60
2017,05,06,07,29,5.70
2017,05,06,07,30,5.80
2017,05,06,07,31,5.90
2017,05,06,07,32,6.00
2017,05,06,07,33,6.00
2017,05,06,07,34,6.10
2017,05,06,07,35,6.20
2017,05,06,07,36,6.20
2017,05,06,07,37,6.30
2017,05,06,07,38,6.20
2017,05,06,07,39,6.20
2017,05,06,07,40,6.20
2017,05,06,07,41,6.20
2017,05,06,07,42,6.20
2017,05,06,07,43,6.20
2017,05,06,07,44,6.20
2017,05,06,07,45,6.30
2017,05,06,07,46,6.30
2017,05,06,07,47,6.40
2017,05,06,07,48,6.40
2017,05,06,07,49,6.50
2017,05,06,07,50,6.50
2017,05,06,07,51,6.60
2017,05,06,07,52,6.70
2017,05,06,07,53,6.80
2017,05,06,07,54,6.90
2017,05,06,07,55,7.00
2017,05,06,07,56,7.00
2017,05,06,07,57,7.10
2017,05,06,07,58,7.10
2017,05,06,07,59,7.20
2017,05,06,08,00,7.20
2017,05,06,08,01,7.20
2017,05,06,08,02,7.20
2017,05,06,08,03,7.30
2017,05,06,08,04,7.30
2017,05,06,08,05,7.40
2017,05,06,08,06,7.50
2017,05,06,08,07,7.60
2017,05,06,08,08,7.60
2017,05,06,08,09,7.70
2017,05,06,08,10,7.70
2017,05,06,08,11,7.80
2017,05,06,08,12,7.80
2017,05,06,08,13,7.90
2017,05,06,08,14,7.90
2017,05,06,08,15,7.90
2017,05,06,08,16,8.00
2017,05,06,08,17,8.10
2017,05,06,08,18,8.10
2017,05,06,08,19,8.20
2017,05,06,08,20,8.20
2017,05,06,08,21,8.30
2017,05,06,08,22,8.30
2017,05,06,08,23,8.30
2017,05,06,08,24,8.30
2017,05,06,08,25,8.30
2017,05,06,08,26,8.30
2017,05,06,08,27,8.30
2017,05,06,08,28,8.40
2017,05,06,08,29,8.40
2017,05,06,08,30,8.50
2017,05,06,08,31,8.50
2017,05,06,08,32,8.50
2017,05,06,08,33,8.50
2017,05,06,08,34,8.50
2017,05,06,08,35,8.50
2017,05,06,08,36,8.50
2017,05,06,08,37,8.40
2017,05,06,08,38,8.40
2017,05,06,08,39,8.40
2017,05,06,08,40,8.40
2017,05,06,08,41,8.50
2017,05,06,08,42,8.50
2017,05,06,08,43,8.60
2017,05,06,08,44,8.70
2017,05,06,08,45,8.70
2017,05,06,08,46,8.70
2017,05,06,08,47,8.80
2017,05,06,08,48,8.80
2017,05,06,08,49,8.80
2017,05,06,08,50,8.80
2017,05,06,08,51,8.80
2017,05,06,08,52,8.80
2017,05,06,08,53,8.80
2017,05,06,08,54,8.80
2017,05,06,08,55,8.80
2017,05,06,08,56,8.90
2017,05,06,08,57,8.80
2017,05,06,08,58,8.90
2017,05,06,08,59,8.90
2017,05,06,09,00,8.90
2017,05,06,09,01,9.00
2017,05,06,09,02,9.00
2017,05,06,09,03,9.00
2017,05,06,09,04,9.00
2017,05,06,09,05,9.10
2017,05,06,09,06,9.10
2017,05,06,09,07,9.10
2017,05,06,09,08,9.10
2017,05,06,09,09,9.10
2017,05,06,09,10,9.10
2017,05,06,09,11,9.10
2017,05,06,09,12,9.20
2017,05,06,09,13,9.30
2017,05,06,09,14,9.30
2017,05,06,09,15,9.40
2017,05,06,09,16,9.40
2017,05,06,09,17,9.50
2017,05,06,09,18,9.50
2017,05,06,09,19,9.60
2017,05,06,09,20,9.60
2017,05,06,09,21,9.50
2017,05,06,09,22,9.40
2017,05,06,09,23,9.40
2017,05,06,09,24,9.30
2017,05,06,09,25,9.20
2017,05,06,09,26,9.20
2017,05,06,09,27,9.20
2017,05,06,09,28,9.30
2017,05,06,09,29,9.30
2017,05,06,09,30,9.40
2017,05,06,09,31,9.40
2017,05,06,09,32,9.40
2017,05,06,09,33,9.40
2017,05,06,09,34,9.50
2017,05,06,09,35,9.50
2017,05,06,09,36,9.60
2017,05,06,09,37,9.60
2017,05,06,09,38,9.60
2017,05,06,09,39,9.70
2017,05,06,09,40,9.70
2017,05,06,09,41,9.70
2017,05,06,09,42,9.70
2017,05,06,09,43,9.70
2017,05,06,09,44,9.80
2017,05,06,09,45,9.80
2017,05,06,09,46,9.80
2017,05,06,09,47,9.80
2017,05,06,09,48,9.90
2017,05,06,09,49,9.90
2017,05,06,09,50,10.00
2017,05,06,09,51,10.00
2017,05,06,09,52,10.10
2017,05,06,09,53,10.10
2017,05,06,09,54,10.20
2017,05,06,09,55,10.20
2017,05,06,09,56,10.20
2017,05,06,09,57,10.30
2017,05,06,09,58,10.40
2017,05,06,09,59,10.40
2017,05,06,10,00,10.50
2017,05,06,10,01,10.50
2017,05,06,10,02,10.50
2017,05,06,10,03,10.50
2017,05,06,10,04,10.40
2017,05,06,10,05,10.30
2017,05,06,10,06,10.30
2017,05,06,10,07,10.30
2017,05,06,10,08,10.20
2017,05,06,10,09,10.20
2017,05,06,10,10,10.20
2017,05,06,10,11,10.30
2017,05,06,10,12,10.30
2017,05,06,10,13,10.30
2017,05,06,10,14,10.30
2017,05,06,10,15,10.40
2017,05,06,10,16,10.40
2017,05,06,10,17,10.40
2017,05,06,10,18,10.50
2017,05,06,10,19,10.50
2017,05,06,10,20,10.60
2017,05,06,10,21,10.60
2017,05,06,10,22,10.60
2017,05,06,10,23,10.70
2017,05,06,10,24,10.60
2017,05,06,10,25,10.60
2017,05,06,10,26,10.50
2017,05,06,10,27,10.40
2017,05,06,10,28,10.40
2017,05,06,10,29,10.50
2017,05,06,10,30,10.50
2017,05,06,10,31,10.50
2017,05,06,10,32,10.60
2017,05,06,10,33,10.60
2017,05,06,10,34,10.60
2017,05,06,10,35,10.70
2017,05,06,10,36,10.70
2017,05,06,10,37,10.60
2017,05,06,10,38,10.50
2017,05,06,10,39,10.50
2017,05,06,10,40,10.50
2017,05,06,10,41,10.40
2017,05,06,10,42,10.40
2017,05,06,10,43,10.30
2017,05,06,10,44,10.30
2017,05,06,10,45,10.30
2017,05,06,10,46,10.40
2017,05,06,10,47,10.40
2017,05,06,10,48,10.40
2017,05,06,10,49,10.30
2017,05,06,10,50,10.30
2017,05,06,10,51,10.30
2017,05,06,10,52,10.30
2017,05,06,10,53,10.30
2017,05,06,10,54,10.30
2017,05,06,10,55,10.40
2017,05,06,10,56,10.40
2017,05,06,10,57,10.40
2017,05,06,10,58,10.40
2017,05,06,10,59,10.50
2017,05,06,11,00,10.50
2017,05,06,11,01,10.50
2017,05,06,11,02,10.50
2017,05,06,11,03,10.40
2017,05,06,11,04,10.40
2017,05,06,11,05,10.40
2017,05,06,11,06,10.40
2017,05,06,11,07,10.40
2017,05,06,11,08,10.40
2017,05,06,11,09,10.40
2017,05,06,11,10,10.40
2017,05,06,11,11,10.50
2017,05,06,11,12,10.60
2017,05,06,11,13,10.60
2017,05,06,11,14,10.60
2017,05,06,11,15,10.60
2017,05,06,11,16,10.60
2017,05,06,11,17,10.50
2017,05,06,11,18,10.50
2017,05,06,11,19,10.40
2017,05,06,11,20,10.40
2017,05,06,11,21,10.30
2017,05,06,11,22,10.40
2017,05,06,11,23,10.30
2017,05,06,11,24,10.40
2017,05,06,11,25,10.40
2017,05,06,11,26,10.40
2017,05,06,11,27,10.40
2017,05,06,11,28,10.30
2017,05,06,11,29,10.30
2017,05,06,11,30,10.30
2017,05,06,11,31,10.30
2017,05,06,11,32,10.30
2017,05,06,11,33,10.40
2017,05,06,11,34,10.40
2017,05,06,11,35,10.40
2017,05,06,11,36,10.50
2017,05,06,11,37,10.50
2017,05,06,11,38,10.60
2017,05,06,11,39,10.60
2017,05,06,11,40,10.70
2017,05,06,11,41,10.70
2017,05,06,11,42,10.80
2017,05,06,11,43,10.80
2017,05,06,11,44,10.90
2017,05,06,11,45,10.90
2017,05,06,11,46,10.90
2017,05,06,11,47,10.90
2017,05,06,11,48,10.90
2017,05,06,11,49,10.90
2017,05,06,11,50,10.90
2017,05,06,11,51,10.90
2017,05,06,11,52,10.90
2017,05,06,11,53,11.00
2017,05,06,11,54,11.10
2017,05,06,11,55,11.20
2017,05,06,11,56,11.20
2017,05,06,11,57,11.20
2017,05,06,11,58,11.20
2017,05,06,11,59,11.20
2017,05,06,12,00,11.20
2017,05,06,12,01,11.20
2017,05,06,12,02,11.30
2017,05,06,12,03,11.50
2017,05,06,12,04,11.60
2017,05,06,12,05,11.70
2017,05,06,12,06,11.80
2017,05,06,12,07,11.80
2017,05,06,12,08,11.70
2017,05,06,12,09,11.60
2017,05,06,12,10,11.50
2017,05,06,12,11,11.50
2017,05,06,12,12,11.40
2017,05,06,12,13,11.30
2017,05,06,12,14,11.30
2017,05,06,12,15,11.30
2017,05,06,12,16,11.40
2017,05,06,12,17,11.50
2017,05,06,12,18,11.50
2017,05,06,12,19,11.40
2017,05,06,12,20,11.40
2017,05,06,12,21,11.40
2017,05,06,12,22,11.50
2017,05,06,12,23,11.50
2017,05,06,12,24,11.50
2017,05,06,12,25,11.50
2017,05,06,12,26,11.40
2017,05,06,12,27,11.40
2017,05,06,12,28,11.50
2017,05,06,12,29,11.50
2017,05,06,12,30,11.50
2017,05,06,12,31,11.50
2017,05,06,12,32,11.40
2017,05,06,12,33,11.40
2017,05,06,12,34,11.30
2017,05,06,12,35,11.20
2017,05,06,12,36,11.20
2017,05,06,12,37,11.10
2017,05,06,12,38,11.10
2017,05,06,12,39,11.10
2017,05,06,12,40,11.10
2017,05,06,12,41,11.10
2017,05,06,12,42,11.10
2017,05,06,12,43,11.20
2017,05,06,12,44,11.30
2017,05,06,12,45,11.30
2017,05,06,12,46,11.50
2017,05,06,12,47,11.60
2017,05,06,12,48,11.70
2017,05,06,12,49,11.70
2017,05,06,12,50,11.70
2017,05,06,12,51,11.60
2017,05,06,12,52,11.70
2017,05,06,12,53,11.70
2017,05,06,12,54,11.70
2017,05,06,12,55,11.80
2017,05,06,12,56,11.80
2017,05,06,12,57,11.90
2017,05,06,12,58,12.00
2017,05,06,12,59,12.10
2017,05,06,13,00,12.20
2017,05,06,13,01,12.30
2017,05,06,13,02,12.40
2017,05,06,13,03,12.50
2017,05,06,13,04,12.50
2017,05,06,13,05,12.50
2017,05,06,13,06,12.50
2017,05,06,13,07,12.40
2017,05,06,13,08,12.40
2017,05,06,13,09,12.30
2017,05,06,13,10,12.40
2017,05,06,13,11,12.40
2017,05,06,13,12,12.40
2017,05,06,13,13,12.40
2017,05,06,13,14,12.50
2017,05,06,13,15,12.50
2017,05,06,13,16,12.60
2017,05,06,13,17,12.60
2017,05,06,13,18,12.60
2017,05,06,13,19,12.60
2017,05,06,13,20,12.70
2017,05,06,13,21,12.70
2017,05,06,13,22,12.70
2017,05,06,13,23,12.70
2017,05,06,13,24,12.80
2017,05,06,13,25,12.80
2017,05,06,13,26,12.80
2017,05,06,13,27,12.80
2017,05,06,13,28,12.70
2017,05,06,13,29,12.70
2017,05,06,13,30,12.60
2017,05,06,13,31,12.60
2017,05,06,13,32,12.60
2017,05,06,13,33,12.60
2017,05,06,13,34,12.50
2017,05,06,13,35,12.50
2017,05,06,13,36,12.40
2017,05,06,13,37,12.30
2017,05,06,13,38,12.30
2017,05,06,13,39,12.30
2017,05,06,13,40,12.40
2017,05,06,13,41,12.40
2017,05,06,13,42,12.40
2017,05,06,13,43,12.40
2017,05,06,13,44,12.40
2017,05,06,13,45,12.40
2017,05,06,13,46,12.30
2017,05,06,13,47,12.30
2017,05,06,13,48,12.20
2017,05,06,13,49,12.20
2017,05,06,13,50,12.10
2017,05,06,13,51,12.10
2017,05,06,13,52,12.10
2017,05,06,13,53,12.10
2017,05,06,13,54,12.10
2017,05,06,13,55,12.20
2017,05,06,13,56,12.30
2017,05,06,13,57,12.30
2017,05,06,13,58,12.30
2017,05,06,13,59,12.40
2017,05,06,14,00,12.40
2017,05,06,14,01,12.60
2017,05,06,14,02,12.70
2017,05,06,14,03,12.80
2017,05,06,14,04,12.80
2017,05,06,14,05,12.90
2017,05,06,14,06,12.90
2017,05,06,14,07,12.80
2017,05,06,14,08,12.70
2017,05,06,14,09,12.60
2017,05,06,14,10,12.60
2017,05,06,14,11,12.60
2017,05,06,14,12,12.70
2017,05,06,14,13,12.60
2017,05,06,14,14,12.70
2017,05,06,14,15,12.70
2017,05,06,14,16,12.80
2017,05,06,14,17,12.90
2017,05,06,14,18,13.10
2017,05,06,14,19,13.20
2017,05,06,14,20,13.30
2017,05,06,14,21,13.20
2017,05,06,14,22,13.20
2017,05,06,14,23,13.10
2017,05,06,14,24,13.00
2017,05,06,14,25,13.00
2017,05,06,14,26,13.00
2017,05,06,14,27,12.90
2017,05,06,14,28,12.90
2017,05,06,14,29,12.90
2017,05,06,14,30,12.90
2017,05,06,14,31,12.80
2017,05,06,14,32,12.80
2017,05,06,14,33,12.80
2017,05,06,14,34,12.70
2017,05,06,14,35,12.70
2017,05,06,14,36,12.70
2017,05,06,14,37,12.70
2017,05,06,14,38,12.70
2017,05,06,14,39,12.60
2017,05,06,14,40,12.60
2017,05,06,14,41,12.60
2017,05,06,14,42,12.70
2017,05,06,14,43,12.80
2017,05,06,14,44,12.80
2017,05,06,14,45,12.70
2017,05,06,14,46,12.70
2017,05,06,14,47,12.60
2017,05,06,14,48,12.60
2017,05,06,14,49,12.50
2017,05,06,14,50,12.40
2017,05,06,14,51,12.50
2017,05,06,14,52,12.50
2017,05,06,14,53,12.60
2017,05,06,14,54,12.60
2017,05,06,14,55,12.70
2017,05,06,14,56,12.80
2017,05,06,14,57,12.80
2017,05,06,14,58,12.90
2017,05,06,14,59,12.90
2017,05,06,15,00,12.90
2017,05,06,15,01,12.90
2017,05,06,15,02,12.90
2017,05,06,15,03,12.90
2017,05,06,15,04,12.90
2017,05,06,15,05,12.90
2017,05,06,15,06,12.90
2017,05,06,15,07,12.90
2017,05,06,15,08,12.80
2017,05,06,15,09,12.70
2017,05,06,15,10,12.70
2017,05,06,15,11,12.60
2017,05,06,15,12,12.60
2017,05,06,15,13,12.50
2017,05,06,15,14,12.50
2017,05,06,15,15,12.50
2017,05,06,15,16,12.50
2017,05,06,15,17,12.40
2017,05,06,15,18,12.40
2017,05,06,15,19,12.40
2017,05,06,15,20,12.40
2017,05,06,15,21,12.40
2017,05,06,15,22,12.40
2017,05,06,15,23,12.40
2017,05,06,15,24,12.40
2017,05,06,15,25,12.40
2017,05,06,15,26,12.40
2017,05,06,15,27,12.40
2017,05,06,15,28,12.30
2017,05,06,15,29,12.30
2017,05,06,15,30,12.30
2017,05,06,15,31,12.30
2017,05,06,15,32,12.30
2017,05,06,15,33,12.40
2017,05,06,15,34,12.40
2017,05,06,15,35,12.40
2017,05,06,15,36,12.40
2017,05,06,15,37,12.40
2017,05,06,15,38,12.50
2017,05,06,15,39,12.50
2017,05,06,15,40,12.40
2017,05,06,15,41,12.40
2017,05,06,15,42,12.40
2017,05,06,15,43,12.30
2017,05,06,15,44,12.30
2017,05,06,15,45,12.30
2017,05,06,15,46,12.20
2017,05,06,15,47,12.20
2017,05,06,15,48,12.20
2017,05,06,15,49,12.20
2017,05,06,15,50,12.20
2017,05,06,15,51,12.20
2017,05,06,15,52,12.20
2017,05,06,15,53,12.20
2017,05,06,15,54,12.20
2017,05,06,15,55,12.20
2017,05,06,15,56,12.30
2017,05,06,15,57,12.30
2017,05,06,15,58,12.30
2017,05,06,15,59,12.40
2017,05,06,16,00,12.50
2017,05,06,16,01,12.50
2017,05,06,16,02,12.60
2017,05,06,16,03,12.60
2017,05,06,16,04,12.70
2017,05,06,16,05,12.80
2017,05,06,16,06,12.90
2017,05,06,16,07,12.90
2017,05,06,16,08,12.90
2017,05,06,16,09,12.80
2017,05,06,16,10,12.80
2017,05,06,16,11,12.80
2017,05,06,16,12,12.80
2017,05,06,16,13,12.80
2017,05,06,16,14,12.80
2017,05,06,16,15,12.80
2017,05,06,16,16,12.80
2017,05,06,16,17,12.90
2017,05,06,16,18,12.90
2017,05,06,16,19,12.80
2017,05,06,16,20,12.70
2017,05,06,16,21,12.70
2017,05,06,16,22,12.70
2017,05,06,16,23,12.70
2017,05,06,16,24,12.70
2017,05,06,16,25,12.80
2017,05,06,16,26,12.80
2017,05,06,16,27,12.70
2017,05,06,16,28,12.70
2017,05,06,16,29,12.70
2017,05,06,16,30,12.70
2017,05,06,16,31,12.70
2017,05,06,16,32,12.80
2017,05,06,16,33,12.80
2017,05,06,16,34,12.80
2017,05,06,16,35,12.80
2017,05,06,16,36,12.80
2017,05,06,16,37,12.80
2017,05,06,16,38,12.80
2017,05,06,16,39,12.80
2017,05,06,16,40,12.70
2017,05,06,16,41,12.70
2017,05,06,16,42,12.60
2017,05,06,16,43,12.60
2017,05,06,16,44,12.60
2017,05,06,16,45,12.60
2017,05,06,16,46,12.60
2017,05,06,16,47,12.50
2017,05,06,16,48,12.50
2017,05,06,16,49,12.60
2017,05,06,16,50,12.60
2017,05,06,16,51,12.60
2017,05,06,16,52,12.60
2017,05,06,16,53,12.60
2017,05,06,16,54,12.60
2017,05,06,16,55,12.60
2017,05,06,16,56,12.70
2017,05,06,16,57,12.70
2017,05,06,16,58,12.60
2017,05,06,16,59,12.50
2017,05,06,17,00,12.40
2017,05,06,17,01,12.20
2017,05,06,17,02,12.10
2017,05,06,17,03,11.90
2017,05,06,17,04,11.70
2017,05,06,17,05,11.50
2017,05,06,17,06,11.40
2017,05,06,17,07,11.30
2017,05,06,17,08,11.10
2017,05,06,17,09,11.00
2017,05,06,17,10,10.90
2017,05,06,17,11,10.80
2017,05,06,17,12,10.70
2017,05,06,17,13,10.60
2017,05,06,17,14,10.60
2017,05,06,17,15,10.50
2017,05,06,17,16,10.50
2017,05,06,17,17,10.40
2017,05,06,17,18,10.40
2017,05,06,17,19,10.40
2017,05,06,17,20,10.30
2017,05,06,17,21,10.30
2017,05,06,17,22,10.30
2017,05,06,17,23,10.30
2017,05,06,17,24,10.30
2017,05,06,17,25,10.30
2017,05,06,17,26,10.30
2017,05,06,17,27,10.30
2017,05,06,17,28,10.20
2017,05,06,17,29,10.20
2017,05,06,17,30,10.20
2017,05,06,17,31,10.20
2017,05,06,17,32,10.10
2017,05,06,17,33,10.10
2017,05,06,17,34,10.00
2017,05,06,17,35,10.00
2017,05,06,17,36,9.90
2017,05,06,17,37,9.90
2017,05,06,17,38,9.80
2017,05,06,17,39,9.80
2017,05,06,17,40,9.80
2017,05,06,17,41,9.70
2017,05,06,17,42,9.70
2017,05,06,17,43,9.60
2017,05,06,17,44,9.50
2017,05,06,17,45,9.50